GFSSE_con_mlcape_000.txt.gz
CAPE
32 0 19 77 103 89 102 109 126 94 31 0 0 0 0 0 0 0 0 0 0 0 5 1 1 4 0 14 265 347 339 332 256 391 259 228 346 405 386 523 527 671 597
0 0 0 136 168 170 177 188 172 115 93 0 0 0 0 0 0 0 0 0 0 2 22 6 5 6 0 0 249 372 290 247 202 245 264 230 289 329 287 311 467 441 539
0 0 34 183 293 365 496 390 166 142 261 19 0 0 0 0 0 0 0 0 1 4 22 46 15 5 23 8 232 365 335 255 163 191 137 292 480 303 232 442 535 421 442
0 0 0 166 304 430 315 228 156 245 240 112 0 4 0 1 0 0 0 0 5 6 31 51 50 10 82 59 165 349 431 250 117 217 219 242 328 264 264 453 417 398 327
0 0 0 0 377 523 594 450 276 170 30 151 113 61 56 30 16 0 0 1 11 17 57 80 115 38 14 109 133 302 479 267 175 100 296 234 210 129 83 169 372 310 283
0 0 0 0 32 935 878 720 634 279 128 73 83 59 51 69 65 16 1 4 4 11 68 112 64 81 22 179 165 262 505 342 186 284 174 236 116 118 4 0 54 206 312
0 0 0 0 0 393 425 469 490 284 165 52 71 65 49 52 44 54 32 16 17 9 12 25 124 85 78 170 293 267 461 361 319 501 191 121 2 34 34 24 107 170 296
0 0 0 0 12 88 369 356 220 114 74 25 31 32 31 9 34 46 57 47 42 15 8 1 53 114 57 78 261 380 233 369 569 484 222 131 22 4 26 27 17 157 317
0 0 0 0 0 0 0 0 0 0 0 0 0 0 19 3 21 67 63 70 46 37 29 3 0 176 25 49 145 453 287 585 653 561 248 103 34 153 142 117 99 230 329
0 0 0 0 0 0 0 0 0 0 0 0 3 8 28 13 0 56 80 52 46 96 53 4 0 133 112 15 152 389 437 613 625 533 108 52 75 167 205 108 114 368 303
0 0 0 0 0 0 0 0 0 0 0 1 2 5 5 14 22 84 69 61 65 23 48 33 4 147 167 73 158 162 522 545 624 552 143 72 124 276 124 32 110 254 278
0 0 0 0 0 0 0 4 12 13 3 3 3 4 9 15 42 21 27 34 92 95 58 53 39 156 191 97 69 187 63 629 692 511 371 22 64 295 139 28 40 69 149
0 0 0 0 0 0 0 6 9 13 8 5 4 14 3 11 99 71 22 12 35 36 54 49 2 53 109 165 145 8 5 736 738 611 373 172 196 24 19 9 1 24 213
0 0 0 0 0 0 3 9 12 16 9 5 12 4 32 68 109 100 71 24 45 88 52 117 48 128 173 258 156 43 15 631 840 725 622 187 119 218 27 58 29 84 207
0 0 0 0 0 2 11 14 9 13 15 9 10 9 108 72 119 42 17 32 40 94 103 150 68 134 207 248 200 88 98 670 913 928 646 157 45 98 77 71 92 125 184
0 0 0 0 5 10 10 11 18 48 34 9 4 9 140 173 127 139 25 26 35 62 119 137 147 104 286 181 137 105 343 662 910 871 795 214 30 0 17 109 136 252 351
0 0 0 0 9 14 19 40 48 81 90 75 72 96 111 196 204 191 115 16 36 101 228 253 239 276 254 216 145 95 413 750 774 762 596 189 64 46 29 0 288 302 383
0 0 0 0 6 9 22 60 78 74 151 182 189 194 185 257 328 326 297 287 304 408 352 216 245 207 183 178 120 37 659 775 845 703 658 262 10 43 23 128 280 366 360
0 0 0 0 0 6 5 39 51 90 137 167 134 108 171 301 398 371 403 355 355 376 369 330 212 184 213 201 151 69 890 802 764 673 265 546 86 13 37 156 224 355 386
0 0 0 0 0 0 18 39 33 49 158 107 40 1 80 185 275 423 432 381 334 250 333 387 360 249 233 309 225 337 805 811 693 313 241 148 89 48 58 104 161 440 404
0 0 0 0 0 0 9 55 34 52 29 78 13 7 1 48 169 338 361 382 257 243 285 401 407 333 386 381 430 611 677 670 552 403 193 53 16 3 56 77 117 378 233
0 0 0 0 0 0 4 63 55 87 37 0 3 7 4 1 137 232 317 290 222 197 344 358 377 353 418 561 420 449 305 299 389 191 142 17 50 56 61 64 80 88 108
0 0 0 0 0 0 58 56 141 210 58 108 21 44 30 32 44 122 117 126 208 176 277 473 435 539 488 620 469 209 80 47 70 216 119 49 71 75 73 70 65 111 89
0 0 0 0 0 0 26 19 52 132 64 93 166 116 62 41 15 110 132 167 280 222 506 550 600 522 485 505 391 286 200 149 18 38 5 44 79 48 52 92 74 87 87
0 0 0 0 0 22 27 1 5 57 191 167 153 141 150 179 111 102 115 196 297 432 517 534 609 538 580 309 310 107 157 22 41 2 4 1 0 46 79 89 108 70 126
0 0 0 0 0 0 15 13 4 3 38 49 81 66 55 153 223 153 84 88 285 451 495 484 544 682 701 567 143 171 18 37 45 4 9 7 3 11 56 68 66 97 133

GFSSE_con_mlcape_003.txt.gz
CAPE
0 141 0 0 0 0 0 38 25 15 13 0 0 0 0 0 0 0 0 0 0 0 7 6 3 0 0 0 0 294 414 283 292 466 334 150 333 498 461 352 387 691 724
0 5 0 0 43 42 59 71 77 79 114 54 0 0 0 0 0 0 0 0 0 2 3 45 3 3 0 0 0 332 432 403 239 427 275 256 302 416 315 181 650 637 724
0 0 49 76 116 176 151 164 213 302 386 213 10 0 0 0 0 0 0 0 0 1 9 11 72 14 2 55 8 323 492 387 306 303 360 310 399 405 176 280 513 495 607
0 0 0 71 0 145 328 600 535 719 611 344 154 19 34 23 1 0 0 0 0 1 9 14 62 68 27 121 147 248 491 381 269 287 300 324 637 431 170 695 414 591 563
0 0 0 0 102 395 732 786 508 354 382 100 0 11 52 65 54 29 5 0 3 2 15 34 91 139 62 80 288 244 453 315 260 240 338 338 540 326 126 386 449 650 426
0 0 0 0 1 194 1240 1300 959 627 174 50 0 0 27 9 59 78 74 54 25 7 14 82 186 159 146 92 324 316 371 377 319 231 335 518 403 255 271 372 268 205 281
0 0 0 0 0 0 355 758 491 461 180 122 95 91 142 58 83 71 79 85 49 29 6 4 74 203 152 139 223 421 314 522 449 504 281 205 454 193 97 29 10 93 120
0 0 0 0 0 4 266 266 124 5 2 0 0 57 52 33 7 0 12 127 125 58 10 9 0 37 215 51 109 284 430 468 464 572 600 389 227 147 25 0 0 0 158
0 0 0 0 0 0 0 0 0 0 0 0 0 0 0 0 46 38 20 134 122 123 50 2 0 0 156 75 99 190 575 429 599 647 667 366 385 147 30 0 56 5 203
0 0 0 0 0 0 0 0 0 0 0 0 0 0 7 15 54 77 67 125 135 146 50 83 6 0 46 104 47 144 523 567 672 708 624 414 209 160 121 36 24 57 310
0 0 0 0 0 0 0 0 0 6 2 0 0 2 9 11 22 57 179 124 131 114 97 69 5 0 87 236 20 132 483 307 613 543 587 367 188 104 199 115 81 158 215
0 0 0 0 0 0 0 0 5 15 5 6 5 3 8 7 12 80 92 160 103 110 59 32 37 0 86 78 65 125 24 250 620 640 418 235 198 254 244 97 79 127 223
0 0 0 0 0 0 0 0 2 19 9 5 3 2 7 7 19 158 127 105 146 117 109 18 48 0 0 36 199 139 1 347 703 630 497 160 143 245 78 56 36 51 213
0 0 0 0 0 0 0 0 16 26 21 18 8 9 12 19 74 172 135 145 70 201 164 142 50 0 1 192 232 276 6 315 896 773 643 199 176 255 90 47 74 98 93
0 0 0 0 1 4 3 8 22 17 13 21 15 18 9 48 160 41 45 74 58 82 184 100 158 35 60 291 446 353 38 251 954 960 799 186 166 105 11 8 61 63 116
0 0 0 0 2 2 2 24 12 24 50 36 33 5 21 88 124 133 79 30 64 18 64 200 192 102 134 268 501 272 111 538 734 999 854 286 37 18 35 7 67 160 153
0 0 0 0 0 0 11 53 33 27 44 42 74 70 115 98 196 207 84 44 181 199 187 308 239 305 319 390 378 278 148 678 852 909 761 337 146 24 28 99 123 160 192
0 0 0 0 0 1 14 19 34 36 112 102 93 6 66 135 184 322 185 106 60 256 294 334 175 218 343 352 277 260 252 713 938 894 694 392 113 97 63 99 36 140 189
0 0 0 0 0 0 18 65 77 149 246 206 7 3 1 157 153 300 462 375 336 369 403 333 275 226 336 276 307 262 731 901 918 819 619 419 143 8 4 8 60 173 294
0 0 0 0 2 5 18 38 249 287 285 146 16 0 0 44 145 268 482 536 435 490 523 594 254 239 377 219 200 566 861 1050 983 801 550 366 127 1 0 5 44 38 184
0 0 0 0 2 0 10 35 64 267 35 47 54 11 30 0 50 192 496 460 525 429 491 628 404 263 277 344 149 801 852 923 677 492 164 87 27 11 32 27 9 55 218
0 0 0 0 0 0 5 111 230 231 131 22 121 103 42 56 94 189 360 257 267 446 476 611 585 348 580 473 370 452 546 530 419 336 423 162 26 44 11 1 18 48 76
0 0 0 0 0 0 182 89 206 414 381 393 265 117 111 43 80 182 237 169 196 221 381 545 697 565 604 741 453 303 267 207 254 238 142 97 18 13 27 58 44 48 70
0 0 0 0 0 34 17 3 87 351 361 336 357 273 180 104 109 103 162 193 184 128 265 422 622 641 609 585 635 496 417 193 124 26 130 78 18 46 70 55 74 83 67
0 0 0 0 0 100 8 6 58 101 185 453 428 271 223 192 97 101 116 162 161 278 519 728 810 817 487 471 636 542 253 299 90 6 11 28 45 85 100 62 63 70 49
0 0 0 0 0 8 11 2 56 88 212 285 45 16 111 197 115 155 145 234 378 557 520 608 816 699 586 618 596 305 357 172 57 11 4 6 4 15 60 71 61 55 69

GFSSE_con_mlcape_009.txt.gz
CAPE
0 0 0 0 0 0 0 0 0 0 0 0 0 0 0 0 0 0 0 0 0 0 0 0 0 0 0 0 0 0 0 150 309 191 411 229 258 238 198 227 124 437 762
0 0 0 0 0 0 0 0 0 0 0 0 0 0 0 0 0 0 0 0 0 0 0 0 0 0 0 0 0 0 0 104 409 268 418 277 315 257 266 124 270 232 621
0 0 0 0 0 0 0 0 8 2 0 10 44 23 0 0 0 0 0 0 0 0 0 0 0 0 1 5 1 1 1 45 405 433 214 281 164 208 448 238 386 212 302
0 2 0 0 0 0 0 0 20 118 194 248 262 228 77 1 0 0 0 8 1 1 3 1 0 0 0 0 6 4 36 41 382 388 245 204 189 342 365 576 296 323 466
0 0 87 111 1 0 0 58 232 415 352 281 307 70 1 3 7 38 47 67 66 37 10 10 1 1 0 0 7 7 57 63 332 353 280 179 285 273 392 477 284 285 147
0 25 279 189 49 164 536 851 899 837 547 294 315 10 4 5 24 51 12 14 24 62 55 28 3 1 3 14 72 123 14 132 196 305 308 215 256 388 407 335 114 526 530
0 19 125 21 133 361 510 677 820 840 585 302 174 71 27 35 24 84 81 31 15 67 60 77 14 3 6 33 117 114 165 279 168 289 307 228 210 321 384 295 372 773 573
0 0 0 0 0 0 0 0 0 7 38 19 0 0 0 1 3 15 14 4 2 0 4 94 105 0 1 11 177 136 124 213 218 338 362 365 272 271 303 171 465 689 535
0 0 0 0 0 0 0 0 0 0 0 0 0 0 0 0 0 0 1 5 10 10 2 100 216 34 0 0 0 178 107 118 404 224 353 376 290 276 310 144 130 112 256
0 0 0 0 0 0 0 0 0 0 0 0 0 0 0 2 1 0 0 0 9 13 77 327 334 123 1 4 0 185 162 226 441 255 552 522 402 388 385 256 211 119 123
0 0 0 0 0 0 0 0 0 0 0 0 0 0 0 0 0 0 0 10 49 132 145 439 405 296 100 19 0 266 183 231 339 169 700 748 498 543 313 96 50 19 45
0 0 0 0 0 0 0 0 0 0 7 0 0 0 0 0 0 0 0 9 47 218 327 398 440 350 184 31 0 353 111 171 137 388 781 890 693 557 294 13 0 0 49
0 0 0 0 0 0 0 0 0 0 0 0 0 0 0 0 0 0 0 0 1 33 133 354 388 388 261 25 0 143 50 57 64 441 712 582 647 536 268 129 21 20 16
0 0 0 0 0 0 0 0 0 0 0 0 0 0 0 0 0 0 0 0 0 0 127 225 251 254 160 26 0 9 118 10 57 417 624 668 586 611 426 264 93 62 25
0 0 0 0 0 11 6 0 0 0 0 0 0 0 0 0 0 4 4 0 0 0 33 153 230 162 50 15 0 17 178 86 286 447 597 632 692 696 434 294 135 25 18
0 0 0 0 9 5 0 0 0 0 0 0 0 4 0 6 7 0 0 0 0 0 30 77 111 136 85 26 0 10 171 244 393 542 545 797 673 479 354 195 56 38 38
0 0 0 0 0 0 0 0 0 0 0 0 3 6 6 25 6 0 5 0 1 0 5 86 114 94 53 45 0 201 209 264 225 411 469 638 455 372 317 233 135 89 92
0 0 0 0 0 0 0 0 0 1 1 8 17 6 6 23 8 0 21 15 9 0 1 33 73 113 133 142 62 174 240 268 227 498 475 513 524 401 344 214 126 66 44
0 0 0 0 0 0 1 0 0 0 50 115 12 0 0 0 0 0 25 30 39 0 0 0 3 41 95 70 73 47 156 225 212 643 537 512 422 315 182 52 80 116 137
0 0 0 0 0 15 0 2 1 20 192 147 23 0 0 0 0 0 69 39 22 0 0 0 12 55 134 119 110 91 160 180 301 627 579 448 342 204 104 113 102 61 71
0 0 0 0 0 0 0 17 0 24 0 17 32 1 0 0 0 0 67 55 28 0 7 16 22 86 133 78 56 2 90 131 183 669 471 349 240 93 13 15 11 7 24
0 0 23 2 0 0 8 162 80 136 96 59 53 42 11 2 1 0 30 54 38 8 8 44 68 115 45 94 69 104 139 124 283 431 344 178 96 0 5 15 14 4 5
0 0 20 10 0 0 111 123 19 20 31 22 38 21 11 12 14 11 51 49 50 69 8 49 56 54 54 123 135 160 11 5 245 226 178 88 15 7 11 18 4 10 3
0 0 2 0 0 10 6 0 31 43 7 21 28 31 26 31 18 23 41 40 47 46 53 112 84 59 43 93 166 88 76 99 184 118 71 22 8 5 1 0 5 32 64
0 0 0 0 0 80 75 4 120 26 30 22 3 7 0 9 50 32 103 95 51 135 74 122 2 60 3 79 110 100 80 97 112 33 13 8 3 2 2 1 1 28 65
0 0 0 0 0 80 166 11 0 0 2 4 0 1 8 23 38 54 60 143 52 113 124 151 2 45 0 60 134 82 64 90 40 33 19 5 10 6 2 8 1 69 100

GFSSE_con_mlcape_015.txt.gz
CAPE
0 0 17 30 0 0 0 0 0 0 0 0 0 0 0 0 0 0 0 0 0 0 0 0 0 0 0 0 0 0 0 0 24 377 411 475 431 231 449 384 385 389 582
0 0 37 52 0 0 0 0 0 0 0 0 0 0 0 0 0 0 0 0 0 0 0 0 0 0 0 0 0 0 0 0 0 277 442 566 388 262 194 476 390 500 635
0 0 52 28 0 0 0 0 0 0 0 0 0 0 0 0 0 0 0 0 0 0 0 0 0 0 0 0 1 2 2 0 0 193 551 626 311 269 129 356 498 600 545
0 0 0 0 0 0 0 0 0 0 0 0 0 0 4 9 0 0 0 1 2 5 5 7 0 0 0 0 0 2 5 0 0 74 416 597 347 193 256 337 481 318 506
0 0 0 0 0 0 23 35 46 79 46 94 102 152 141 252 80 51 0 0 7 17 15 9 5 5 1 2 0 1 6 2 0 0 249 398 402 234 248 343 389 612 508
0 0 0 39 38 165 224 194 181 248 296 335 408 544 369 220 57 35 64 74 68 37 18 22 19 40 12 1 2 0 2 13 0 0 43 267 314 265 153 227 372 473 64
0 0 13 133 247 330 336 251 176 209 149 550 756 690 428 207 97 69 55 55 65 40 20 23 28 44 64 10 1 1 13 15 6 0 0 136 212 278 218 226 377 370 151
0 0 31 324 351 391 359 350 337 246 357 829 834 610 194 80 20 83 83 55 35 27 42 28 31 57 41 59 7 46 55 10 16 66 0 148 223 288 411 294 351 330 291
0 27 104 423 480 448 366 270 409 528 585 448 404 173 3 0 0 0 0 5 10 23 32 54 70 48 46 79 46 81 61 139 54 32 0 154 340 425 550 329 384 255 471
34 130 300 358 363 303 273 698 524 193 109 76 5 0 0 0 0 0 6 4 7 12 18 19 16 52 92 86 98 84 52 159 154 39 37 95 368 512 649 358 416 300 543
17 106 185 64 47 84 138 148 148 98 101 0 0 0 0 0 0 0 0 0 2 12 34 23 2 64 77 113 155 79 14 27 94 99 99 129 414 636 790 550 437 384 481
0 0 0 5 2 8 0 0 1 0 0 0 0 0 0 0 0 0 0 1 5 12 27 43 76 71 121 126 100 135 10 0 84 91 125 165 490 669 813 710 491 413 372
0 0 0 0 0 0 0 0 0 0 0 0 0 0 0 0 0 0 0 0 0 0 0 0 0 97 173 142 58 50 9 0 88 112 141 169 572 722 884 795 415 367 217
0 0 0 0 0 0 0 0 0 0 0 0 0 0 0 0 0 0 0 0 0 0 0 0 0 52 250 241 129 46 0 0 124 71 96 313 700 916 903 827 462 320 148
0 0 0 0 0 0 0 0 0 0 0 0 0 0 0 0 0 0 0 0 6 1 0 0 0 2 89 161 46 34 0 0 45 106 39 283 737 925 965 730 524 312 228
0 0 0 0 0 0 0 0 0 0 0 0 0 0 0 0 0 0 2 0 0 0 0 0 0 6 76 72 66 39 0 0 0 183 112 343 865 874 1010 682 545 289 233
0 0 0 0 0 0 0 0 0 0 0 0 0 0 0 0 0 0 0 2 0 0 0 0 0 0 60 29 55 14 3 0 0 179 219 570 857 732 1016 732 478 261 227
0 0 0 0 0 0 0 0 0 0 0 0 0 0 0 0 0 0 0 0 0 0 0 0 0 0 44 70 30 40 30 0 3 383 483 690 795 728 636 557 360 423 335
0 0 0 0 0 0 0 0 0 0 0 0 0 0 0 0 0 0 0 0 0 0 0 0 0 2 48 57 65 58 38 7 290 441 595 571 636 609 577 528 484 406 148
0 0 0 0 0 0 0 0 0 0 0 0 0 2 3 0 0 0 0 0 0 0 0 0 0 36 97 94 99 138 106 117 232 475 380 578 614 593 552 482 475 236 85
0 0 0 0 0 0 0 0 0 0 0 0 0 0 8 0 0 0 0 0 0 0 0 0 0 1 18 20 20 71 116 77 157 352 462 551 393 453 469 297 68 109 75
0 0 0 0 0 0 0 5 0 0 0 0 0 6 18 12 7 2 0 2 1 0 0 0 0 1 0 6 12 3 2 43 88 261 361 408 328 385 237 83 61 84 45
0 0 0 0 0 0 12 0 0 0 0 0 0 0 3 12 13 3 0 0 0 0 0 0 0 3 1 0 1 0 7 37 77 256 208 341 372 226 34 21 9 5 23
0 0 0 0 0 0 0 0 0 0 0 0 0 0 0 16 23 0 0 7 0 0 0 0 0 0 5 2 15 0 7 72 49 88 166 203 220 98 31 23 51 22 26
0 0 0 0 0 0 0 0 0 0 0 0 0 0 0 7 18 5 0 0 0 0 0 0 0 0 9 27 32 0 0 31 102 113 86 140 65 29 9 4 5 9 28
0 0 0 0 0 0 3 0 0 0 0 0 0 0 0 5 2 0 0 0 0 7 1 0 0 0 9 42 62 9 12 52 89 89 139 80 11 2 4 2 2 6 4

GFSSE_con_mlcape_021.txt.gz
CAPE
0 0 25 65 4 0 0 0 0 0 0 0 0 0 0 0 0 0 0 0 0 0 0 0 0 0 0 0 0 0 0 0 0 46 492 646 458 511 440 504 654 574 739
0 0 26 54 0 0 0 0 0 0 0 0 0 0 0 0 0 0 0 0 0 0 0 0 0 0 0 0 0 0 0 0 0 0 154 537 540 481 563 566 538 692 595
0 0 50 68 3 0 0 0 0 0 0 0 0 0 0 0 0 0 0 0 0 0 0 0 0 0 0 0 0 0 0 0 0 0 0 678 785 557 614 608 676 622 557
0 0 8 67 4 0 0 0 0 0 0 0 0 0 0 0 0 0 0 0 0 0 0 0 8 8 0 2 0 0 0 0 0 0 0 346 859 587 530 617 716 613 488
0 7 91 49 0 0 0 7 13 0 0 0 0 0 0 0 0 0 14 6 1 1 1 14 9 5 9 7 4 0 0 0 0 0 0 38 755 692 558 575 477 424 421
0 43 96 21 18 41 21 29 35 0 0 0 0 7 9 17 106 221 235 157 98 61 24 21 7 8 18 10 11 4 0 0 0 0 0 0 252 723 603 526 469 505 314
0 3 157 85 107 162 149 215 156 45 87 156 220 240 239 276 456 442 349 282 154 136 95 58 57 31 3 16 80 36 6 0 0 0 0 0 57 291 610 658 589 320 329
29 16 193 293 268 258 259 357 336 287 390 450 436 551 526 661 637 482 319 140 65 80 89 114 45 41 49 51 52 87 26 4 4 1 5 0 0 89 485 612 686 331 276
115 76 207 459 588 507 375 448 532 564 629 737 632 756 842 669 511 384 52 1 0 0 9 28 24 61 72 67 73 62 65 22 14 13 0 2 0 72 529 711 712 439 320
74 173 218 449 854 810 717 880 693 790 783 817 852 888 1014 430 241 0 0 0 0 0 4 8 10 9 0 41 55 65 77 72 22 24 5 0 0 8 503 744 735 540 302
45 100 231 349 606 793 764 919 1117 1048 1006 991 993 968 513 121 15 11 0 0 0 0 0 2 4 13 22 20 67 75 73 61 52 17 6 0 0 0 289 719 698 701 414
23 58 159 226 503 748 750 1029 1193 1058 835 873 717 489 299 112 46 3 0 0 0 0 2 5 12 49 69 79 38 74 52 28 54 12 0 0 0 8 89 679 787 754 536
17 104 145 247 424 541 675 838 876 826 614 586 555 325 80 29 32 3 0 0 0 0 0 2 3 1 2 5 51 46 41 31 26 15 0 0 2 48 80 619 747 824 538
0 42 161 248 307 487 625 450 252 188 127 40 70 85 55 26 8 0 0 0 0 0 0 3 4 5 1 5 63 34 38 54 73 42 0 0 2 69 109 572 659 824 513
0 0 42 226 351 411 316 127 11 0 0 6 15 2 0 0 7 7 0 0 0 0 2 11 13 18 34 100 106 65 64 70 86 56 0 0 27 35 66 555 748 766 663
0 0 1 77 279 291 79 14 0 0 0 1 5 5 3 0 0 0 2 3 20 39 30 21 4 24 54 95 101 127 113 107 88 0 0 0 0 0 52 585 844 789 823
0 0 0 21 143 73 13 0 2 0 0 18 26 40 0 0 0 7 37 41 33 47 9 28 10 29 55 77 89 124 142 129 22 0 0 36 179 0 215 470 866 845 886
0 0 0 0 1 9 0 0 0 0 11 20 22 30 0 1 29 64 83 74 34 39 31 35 37 9 45 58 83 143 148 107 1 3 42 140 407 573 806 574 653 839 745
0 0 0 0 0 0 0 0 0 6 11 14 10 27 32 25 66 79 70 62 33 30 30 50 38 9 50 86 161 164 145 193 150 177 224 650 877 1003 1122 792 709 667 611
0 0 0 0 0 0 0 0 0 7 4 31 53 83 119 150 136 103 5 8 19 30 29 53 43 29 79 132 171 176 275 376 409 385 517 781 933 1246 1037 838 691 149 262
0 0 0 0 0 0 0 0 1 2 94 94 165 109 105 234 167 11 0 11 6 17 32 85 85 40 78 169 185 142 315 444 560 644 579 922 709 973 1097 955 516 0 270
0 0 0 0 0 0 0 0 19 137 145 125 103 114 142 208 216 78 44 0 1 6 76 65 33 54 157 259 267 347 105 298 603 671 759 820 752 967 905 1046 582 369 270
0 0 0 0 0 0 0 0 32 14 30 0 106 125 108 91 118 44 29 8 11 133 116 74 46 88 166 249 325 305 123 66 459 608 706 782 735 755 807 669 545 369 365
0 0 0 0 0 0 0 2 49 11 0 2 25 31 55 22 135 22 91 32 131 172 133 79 64 143 150 198 217 430 223 601 404 306 497 556 589 524 614 598 454 170 174
0 0 0 0 0 0 0 32 9 0 0 0 0 10 5 59 115 39 128 102 204 225 180 73 42 109 148 137 94 144 321 434 315 244 262 430 407 568 386 250 165 86 73
0 0 0 0 0 0 0 0 0 0 0 0 0 8 18 79 91 177 154 189 207 191 124 64 76 121 177 115 80 52 153 208 143 256 187 191 210 184 165 68 117 69 53

GFSSE_con_mlcape_024.txt.gz
CAPE
0 27 22 0 0 0 0 0 0 0 0 0 0 0 0 0 0 0 0 0 0 0 0 0 0 0 0 0 0 0 0 0 0 14 484 645 608 611 589 598 947 789 514
0 33 42 5 0 0 0 0 0 0 0 0 0 0 0 0 0 0 0 0 0 0 0 0 0 0 0 0 0 0 0 0 0 0 20 453 645 631 700 682 734 842 504
0 22 61 15 0 0 0 0 0 0 0 0 0 0 0 0 0 0 0 0 0 0 0 0 0 0 0 0 0 0 0 0 0 0 0 384 747 626 807 820 749 713 471
0 17 104 82 3 0 0 0 0 0 0 0 0 0 0 0 0 0 0 0 0 0 0 0 0 2 0 0 0 0 0 0 0 0 0 0 838 754 846 884 826 690 462
2 11 155 133 34 2 0 0 0 0 0 0 0 0 0 0 0 0 0 0 0 0 0 0 2 2 6 14 0 0 0 0 0 0 0 0 174 887 804 904 708 486 395
5 16 157 197 80 28 0 0 0 0 0 2 6 0 0 1 15 52 91 188 208 107 42 9 1 7 0 9 8 10 0 0 0 0 0 0 0 702 812 887 860 523 331
27 25 229 234 149 87 41 14 38 75 72 55 6 23 93 119 188 307 529 460 381 279 182 180 114 96 72 36 15 106 56 0 0 0 0 0 0 255 592 862 868 487 378
42 77 266 584 333 212 173 152 142 151 166 126 91 216 334 425 572 744 605 490 353 135 130 200 211 94 45 67 37 80 90 31 4 1 2 0 0 0 272 849 924 629 289
124 130 259 710 660 626 490 465 388 339 290 299 338 473 620 789 894 744 556 323 53 12 17 44 168 195 75 67 70 79 115 76 11 39 29 3 0 0 226 714 909 683 495
153 204 204 570 699 679 681 923 705 689 490 686 826 908 913 912 830 473 163 0 1 11 0 2 23 59 99 71 35 64 122 44 36 20 52 27 3 0 74 687 920 716 588
81 164 216 321 523 687 643 819 1080 1025 1051 1171 1111 1055 792 445 219 217 59 3 0 0 1 3 2 1 8 30 0 21 42 43 41 20 49 44 0 0 0 468 884 791 692
94 89 220 330 523 724 531 619 1177 781 831 833 710 708 732 330 253 131 55 6 0 0 0 0 0 4 38 41 33 0 11 47 43 45 52 34 0 0 0 131 736 733 795
40 92 150 417 599 744 594 679 968 986 837 816 960 785 440 224 218 241 192 157 71 18 5 0 8 5 18 50 38 50 32 30 50 47 46 3 0 38 39 47 520 756 812
3 54 168 311 690 916 627 715 831 773 685 552 466 589 472 353 257 290 147 65 30 26 11 9 19 25 17 19 24 86 34 49 56 59 45 0 0 33 77 65 349 695 824
10 40 182 434 755 1015 925 794 821 551 362 249 203 230 428 285 273 317 250 156 24 17 9 14 20 27 23 42 39 75 84 64 55 102 84 0 0 0 43 110 393 763 880
28 27 153 453 786 981 1044 894 713 405 153 225 51 183 482 375 341 400 295 155 103 31 23 23 31 42 42 54 82 96 100 42 59 117 155 5 0 0 0 42 451 933 919
25 76 118 448 789 1074 1003 841 471 185 188 57 99 464 484 558 428 533 323 247 192 135 101 54 19 36 31 42 70 96 111 125 84 75 63 0 0 0 0 0 533 940 1016
17 39 130 191 577 1004 777 569 224 135 90 79 310 408 576 592 578 487 397 298 203 118 100 46 20 33 36 30 71 85 100 109 99 66 0 0 3 23 7 4 420 759 1004
6 51 45 146 481 726 529 278 187 154 105 201 363 407 484 602 585 484 392 191 352 137 112 145 43 42 38 72 106 135 150 122 102 1 0 4 215 190 81 615 484 664 944
0 2 0 76 300 459 316 214 112 106 113 223 378 429 498 642 570 459 360 467 36 13 123 112 78 91 72 99 113 147 147 157 106 4 25 212 492 511 512 825 1103 919 832
0 0 0 76 297 175 171 60 53 28 40 200 375 482 594 589 468 361 416 7 29 63 31 77 127 157 127 179 171 221 259 337 94 44 257 632 739 772 920 1088 1177 794 575
0 0 27 117 217 128 72 41 34 10 130 268 371 596 551 535 416 379 309 217 53 0 37 77 160 171 138 315 249 209 187 257 297 573 607 719 747 776 966 1189 661 0 0
0 2 32 142 176 111 128 141 178 367 271 267 346 477 602 538 433 373 298 37 44 37 87 194 269 163 236 401 501 379 307 140 175 659 757 784 858 872 1039 1170 821 416 415
0 0 76 124 171 190 111 12 73 50 15 199 282 337 393 358 316 360 183 234 148 211 261 329 264 262 318 448 542 427 507 359 71 489 759 785 825 1027 1153 1064 820 592 668
0 9 68 120 109 94 111 80 198 108 201 222 162 282 346 373 341 143 332 243 199 378 404 315 201 227 402 497 323 614 363 295 554 557 463 525 686 753 891 776 656 499 448
0 6 65 78 68 149 164 351 324 406 219 157 161 160 231 247 311 255 267 317 360 362 271 248 269 276 412 574 455 348 562 251 232 404 561 591 553 529 483 508 347 266 215

GFSSE_con_mlcape_027.txt.gz
CAPE
3 145 0 0 0 0 0 0 0 0 0 0 0 0 0 0 0 0 0 0 0 0 0 0 0 0 0 0 0 0 0 0 0 11 273 599 574 801 830 1289 1198 823 438
0 182 15 0 0 0 0 0 0 0 0 0 0 0 0 0 0 0 0 0 0 0 0 0 0 0 0 0 0 0 0 0 0 0 1 165 527 546 886 854 1003 817 461
0 192 34 7 0 0 0 0 0 0 0 0 0 0 0 0 0 0 0 0 0 0 0 0 0 0 0 0 0 0 0 0 0 0 0 11 718 644 518 752 931 692 495
3 235 45 39 2 0 0 0 0 0 0 0 0 0 0 0 0 0 0 0 0 0 0 0 0 1 3 0 0 0 0 0 0 0 0 0 6 946 812 800 627 636 559
0 254 124 86 46 10 0 0 0 0 0 0 0 0 0 0 0 0 1 6 0 10 6 0 3 5 4 14 7 0 0 0 0 0 0 0 0 351 964 626 640 616 616
3 85 301 203 66 51 5 0 0 0 0 0 0 0 0 8 5 0 11 33 82 128 118 95 72 17 11 22 11 16 14 0 0 0 0 0 0 14 594 830 692 764 539
3 7 348 286 95 93 58 7 0 0 0 0 4 27 0 6 24 101 193 358 546 438 354 249 231 196 138 122 53 24 90 92 1 0 0 0 0 14 398 571 802 616 589
9 13 69 447 264 142 150 117 52 22 24 44 65 58 72 152 222 416 586 743 545 409 205 109 108 212 164 74 117 72 62 97 56 13 0 0 10 0 12 290 762 675 563
32 45 50 1104 742 370 366 431 302 120 76 144 143 106 227 357 548 806 969 650 479 181 31 34 31 57 234 158 85 122 112 94 1 48 30 11 8 0 0 102 890 787 629
103 83 95 346 1188 901 487 963 697 300 211 244 260 289 411 589 668 750 529 372 53 25 52 0 0 11 54 136 176 145 121 152 2 18 25 49 58 0 0 59 867 761 681
52 109 151 145 407 764 455 713 1128 875 595 550 540 670 759 431 287 716 634 336 158 78 12 11 2 0 0 12 42 36 18 0 6 22 29 166 99 3 0 0 615 806 687
89 71 107 218 259 558 433 577 1272 728 624 570 565 724 1064 889 518 370 311 141 65 27 7 0 0 0 0 0 7 14 4 0 3 31 41 92 30 9 0 0 302 724 748
36 78 108 345 475 587 589 507 1175 1015 715 842 973 1048 986 700 263 311 419 493 317 361 230 114 51 14 3 6 21 48 64 31 16 39 48 62 40 10 0 29 117 634 760
3 106 49 185 687 896 762 534 716 973 954 883 845 1195 1040 623 387 467 416 320 398 199 189 65 14 24 18 16 29 30 40 31 35 44 251 57 16 0 0 39 80 421 624
0 5 61 174 873 1166 1235 656 769 878 785 766 656 610 703 382 427 512 516 523 391 275 145 52 47 21 17 22 27 30 34 123 7 87 63 22 7 0 0 66 90 341 786
0 0 69 173 961 1237 1421 1389 1152 1221 697 566 387 304 430 524 554 530 597 542 411 292 290 160 1 8 23 33 36 36 61 160 73 99 126 41 8 0 0 28 93 263 851
0 3 130 252 1070 1420 1601 1533 1273 952 614 348 296 190 305 754 731 749 532 553 424 257 410 351 234 49 24 45 24 48 55 115 114 30 127 96 24 0 0 0 35 160 1009
0 1 94 194 754 1410 1559 1545 1222 679 500 179 162 231 666 818 829 679 662 585 502 547 441 264 169 96 19 41 42 51 94 64 98 146 149 208 25 25 61 0 0 194 945
0 46 216 393 608 1225 1596 1405 1066 583 328 150 218 349 503 778 708 679 683 727 601 527 475 242 116 211 55 21 58 141 156 275 191 126 165 14 3 41 286 72 0 257 706
6 56 387 490 542 1234 1401 1147 519 364 305 183 313 389 494 672 604 769 796 609 596 519 57 26 128 238 150 164 109 112 220 163 157 168 25 14 59 40 97 477 769 587 718
41 289 394 377 748 1211 957 507 289 251 259 204 248 443 613 645 605 773 855 673 539 145 165 125 59 39 156 228 338 250 362 329 247 62 68 32 319 384 140 220 1039 890 974
155 259 305 405 744 843 509 319 197 200 159 200 308 463 694 635 609 793 850 687 418 254 147 80 151 146 137 148 127 248 104 298 283 96 100 487 691 528 299 702 977 1000 621
216 306 372 493 696 476 338 263 269 291 445 379 173 359 607 635 682 653 733 594 396 209 87 137 204 229 229 288 299 312 196 125 128 188 350 519 685 523 285 1012 821 243 145
293 354 411 524 509 287 281 334 304 164 123 217 349 170 646 512 342 464 481 385 268 264 226 369 340 318 292 306 371 450 385 353 169 228 498 599 708 631 724 1240 920 695 177
289 280 438 470 363 355 326 190 298 129 37 115 84 389 638 636 562 408 323 379 347 364 470 503 458 325 315 433 474 425 419 558 320 208 382 577 514 778 1074 1238 1079 804 383
199 325 407 423 385 297 201 334 454 424 249 181 364 409 438 760 642 503 213 322 337 587 485 349 167 313 572 674 532 514 432 489 289 451 481 533 557 659 834 966 890 698 421

GFSSE_con_mlcape_030.txt.gz
CAPE
156 15 0 0 0 0 0 0 0 0 0 0 0 0 0 0 0 0 0 0 0 0 0 0 0 0 0 0 0 0 0 0 0 9 119 320 653 695 821 1077 843 918 523
220 8 0 0 0 0 0 0 0 0 0 0 0 0 0 0 0 0 0 0 0 0 0 0 0 0 0 0 0 0 0 0 0 0 0 35 299 580 758 910 661 778 484
249 21 0 0 0 0 0 0 0 0 0 0 0 0 0 0 0 0 0 0 0 0 0 0 0 0 0 0 0 0 0 0 0 0 0 0 30 780 457 677 768 650 554
289 82 0 0 0 0 0 0 0 0 0 0 0 0 0 0 0 0 0 0 0 0 0 0 0 0 1 0 0 0 0 0 0 0 0 0 0 213 665 353 387 545 655
307 156 40 0 0 0 0 0 0 0 0 0 0 0 0 0 0 0 0 0 0 5 44 32 22 4 6 11 19 0 0 0 0 0 0 0 0 0 540 625 324 529 569
175 291 166 0 0 0 0 0 0 0 0 0 0 0 0 0 0 0 0 0 0 44 127 185 177 128 70 35 44 39 43 24 7 0 0 0 0 46 485 557 590 546 481
0 222 328 140 4 29 14 2 0 0 0 0 0 7 0 0 0 16 27 122 255 422 408 381 271 277 265 137 159 103 68 88 106 12 0 0 0 7 163 323 412 437 540
0 25 535 266 50 75 63 40 6 0 0 0 0 25 18 14 33 121 244 427 635 499 356 249 101 114 197 295 131 133 129 75 4 48 29 0 80 33 29 23 279 511 436
6 0 567 471 387 100 143 96 37 6 0 0 0 33 41 77 178 268 414 744 729 510 348 75 37 3 45 176 286 190 178 155 81 6 1 29 72 18 0 0 15 628 442
70 50 312 653 574 460 312 310 181 127 111 53 36 57 84 202 350 252 260 742 521 433 138 78 19 0 0 79 193 301 209 225 189 37 0 28 135 136 4 0 2 711 567
32 115 307 760 1183 875 636 703 756 432 296 226 251 246 269 342 291 456 657 848 677 398 203 140 43 8 2 0 35 167 205 122 37 26 0 28 89 155 48 1 0 559 704
0 61 184 260 987 1224 801 550 879 855 808 543 481 481 395 511 621 591 342 891 473 297 176 113 40 12 0 0 0 0 128 48 5 0 12 106 115 134 27 5 0 290 725
0 0 190 274 395 945 803 567 1083 987 809 703 558 546 1043 1184 1055 900 327 375 381 248 166 335 200 25 31 1 0 67 112 53 0 0 8 175 85 114 29 0 0 143 722
0 0 4 389 433 622 733 669 1391 1369 1080 850 794 908 1087 1114 876 438 267 433 463 425 407 228 162 172 70 164 89 29 35 87 37 63 174 287 111 111 38 13 0 39 618
0 0 2 460 402 711 786 771 1190 1457 1261 1033 1185 1311 1441 1134 734 636 659 733 690 432 307 434 163 124 20 3 11 28 64 45 58 75 134 74 40 34 29 17 1 47 519
0 0 0 226 628 871 714 1027 992 1079 1236 1174 1120 1188 1174 898 549 707 782 697 676 484 324 288 222 103 2 17 17 36 40 50 199 108 44 210 17 21 18 9 68 76 411
0 0 0 252 1020 988 1293 1057 1863 1261 1093 1071 714 644 683 565 547 974 856 768 571 482 298 193 220 219 7 5 33 44 37 26 49 183 101 159 44 20 7 0 13 114 310
0 0 8 88 1223 1353 1728 1559 1169 1325 1169 758 477 451 379 802 857 1028 923 627 548 546 314 210 209 135 121 19 1 41 57 50 35 76 72 127 139 80 17 0 0 13 134
0 21 98 324 1517 1674 1888 1975 1485 1543 985 597 425 349 511 736 902 932 790 659 788 543 416 242 215 74 36 75 4 1 51 156 200 113 51 108 85 30 124 35 0 14 117
80 117 391 672 1206 1765 1968 1742 1720 1262 699 468 299 391 627 769 866 839 724 867 771 470 359 259 109 18 30 31 62 57 97 130 202 170 117 90 28 0 67 479 84 0 483
127 127 543 866 1017 1688 1860 1632 1345 927 464 356 385 454 535 701 708 707 730 677 584 471 381 139 97 45 30 54 99 73 47 69 94 126 208 18 0 10 101 287 102 252 472
261 395 774 809 883 1598 1694 1427 809 501 378 386 315 438 609 608 535 545 752 565 622 459 238 191 93 0 2 26 9 20 4 21 72 115 131 48 247 198 237 472 456 694 1065
395 502 619 807 1494 1444 1052 815 720 326 492 380 498 530 815 654 628 666 649 592 493 313 171 161 117 97 134 121 29 12 14 4 1 51 107 163 498 355 479 520 740 1029 668
469 546 703 1071 1271 1018 714 595 291 257 305 419 284 528 770 854 613 388 465 366 221 291 265 210 155 126 143 34 131 86 74 62 12 14 87 156 220 99 380 442 680 476 383
560 668 880 1038 882 804 536 357 460 485 430 309 228 519 671 695 635 495 447 368 230 273 258 201 283 136 167 129 166 107 58 103 62 17 12 26 314 98 329 762 779 248 52
612 715 917 826 835 510 453 597 363 302 394 406 299 529 341 518 604 612 396 290 307 214 317 406 255 186 171 187 209 191 261 133 31 19 70 60 84 146 165 478 706 755 229

GFSSE_con_mlcape_033.txt.gz
CAPE
13 0 0 0 0 0 0 0 0 0 0 0 0 0 0 0 0 0 0 0 0 0 0 0 0 0 0 0 0 0 0 0 0 0 6 118 287 596 519 453 748 961 601
27 1 0 0 0 0 0 0 0 0 0 0 0 0 0 0 0 0 0 0 0 0 0 0 0 0 0 0 0 0 0 0 0 0 0 0 12 389 470 486 768 857 596
0 0 0 0 0 0 0 0 0 0 0 0 0 0 0 0 0 0 0 0 0 0 0 0 0 0 0 0 0 0 0 0 0 0 0 0 0 4 719 332 568 784 597
0 0 0 0 0 0 0 0 0 0 0 0 0 0 0 0 0 0 0 0 0 0 0 0 0 0 0 0 0 0 0 0 0 0 0 0 0 0 68 414 319 431 636
0 0 0 0 0 0 0 0 0 0 0 0 0 0 0 0 0 0 0 0 0 0 0 14 17 12 0 1 0 10 0 0 0 0 0 0 0 0 6 490 387 354 548
0 0 0 0 0 0 0 0 0 0 0 0 0 0 0 0 0 0 0 0 0 1 41 109 158 170 137 51 48 70 58 45 23 0 0 0 0 0 456 459 599 457 423
57 0 0 0 0 0 0 0 0 0 0 0 0 0 0 0 0 0 1 6 80 186 273 316 313 245 268 251 197 152 96 99 67 2 4 0 0 39 111 154 329 443 414
17 31 0 0 0 0 0 0 0 0 0 0 0 0 0 1 0 17 32 82 208 454 530 294 284 151 145 192 228 188 160 142 58 0 2 4 4 344 98 43 61 94 340
6 0 85 7 0 0 0 6 0 0 0 0 0 9 8 27 0 16 74 123 368 729 467 313 124 47 37 64 180 253 257 243 122 5 0 0 4 104 143 1 2 16 236
31 46 98 106 27 0 0 9 21 4 0 11 29 44 68 84 81 103 97 146 396 592 452 259 64 46 17 20 124 283 323 328 230 89 5 0 1 266 253 39 49 2 130
13 129 181 150 161 16 0 106 45 44 32 42 68 105 200 186 189 162 150 247 483 640 501 212 168 136 52 38 17 144 346 263 180 83 1 0 11 320 536 124 77 138 370
0 197 183 202 202 232 155 128 169 136 224 221 212 217 356 166 136 134 316 607 847 882 673 265 294 192 114 13 0 9 113 122 76 9 15 59 44 314 266 73 70 172 245
0 8 426 304 305 319 404 379 352 235 293 389 270 277 341 218 139 361 423 485 757 836 541 341 260 267 33 0 0 0 0 39 28 0 0 4 151 161 264 128 107 150 267
0 0 54 500 464 507 609 475 544 385 356 232 289 294 255 288 476 599 596 431 387 436 203 135 206 224 50 35 55 23 49 92 59 24 9 62 40 122 317 167 29 30 452
0 0 0 168 571 665 648 474 677 641 621 504 464 375 366 603 812 829 410 112 342 306 260 295 267 188 82 21 18 8 51 69 34 64 42 168 474 130 125 268 114 65 356
0 0 0 36 285 627 675 490 746 844 848 701 736 674 660 766 889 657 435 419 518 381 146 91 133 53 1 0 0 12 12 23 27 97 66 20 130 49 13 131 155 103 224
0 0 0 0 105 373 653 600 845 992 1010 971 831 905 1055 1161 893 600 425 527 579 457 346 154 76 96 71 2 0 11 10 20 26 44 76 129 64 25 23 14 108 134 112
0 0 0 110 225 644 664 1198 1001 1017 1089 950 864 1053 1154 966 598 321 474 506 484 389 279 173 82 50 47 44 4 4 2 28 20 24 43 103 64 51 35 4 0 229 309
0 0 0 148 289 796 1019 950 1366 1192 838 687 279 334 464 282 310 436 594 584 541 464 364 297 174 55 19 33 24 3 0 22 28 30 7 8 70 95 123 130 0 35 385
2 53 85 295 708 1204 1430 1367 1163 1144 837 350 276 160 282 339 430 540 558 536 506 451 322 191 114 53 48 21 20 14 18 31 28 105 36 27 27 44 55 42 31 0 165
24 132 337 665 1126 1462 1519 1478 1164 960 618 455 177 171 319 373 542 637 647 589 675 555 341 192 171 63 3 5 32 23 19 11 0 54 75 56 19 20 1 116 214 9 17
23 289 523 951 1365 1584 1495 1409 1226 932 493 328 237 176 296 550 539 488 356 404 351 329 292 188 124 60 0 6 17 8 1 2 0 4 47 110 62 32 9 182 129 7 0
148 381 591 1005 1603 1630 1481 1213 968 489 350 238 170 199 388 403 432 393 386 322 294 313 171 123 91 64 7 2 0 0 8 2 3 0 30 58 131 71 123 343 300 379 311
339 470 601 1053 1331 1318 1210 898 651 388 350 232 262 327 525 464 502 409 348 246 241 112 104 156 129 116 73 27 56 42 6 24 0 0 18 66 76 36 55 238 281 290 553
431 543 989 1198 1197 940 736 600 407 169 147 221 273 269 497 502 438 296 333 274 221 147 73 60 89 84 90 59 21 30 25 5 20 10 0 4 43 12 113 211 156 151 185
611 820 974 938 908 779 450 352 159 171 346 118 294 306 292 268 328 408 397 221 204 83 41 73 92 98 61 75 99 118 97 0 0 0 8 11 24 25 74 140 219 67 40

GFSSE_con_mlcape_036.txt.gz
CAPE
0 0 0 0 0 0 0 0 0 0 0 0 0 0 0 0 0 0 0 0 0 0 0 0 0 0 0 0 0 0 0 0 0 0 0 13 122 489 440 265 459 752 893
26 0 0 0 0 0 0 0 0 0 0 0 0 0 0 0 0 0 0 0 0 0 0 0 0 0 0 0 0 0 0 0 0 0 0 0 0 50 393 411 434 345 831
0 0 0 0 0 0 0 0 0 0 0 0 0 0 0 0 0 0 0 0 0 0 0 0 0 0 0 0 0 0 0 0 0 0 0 0 0 0 81 329 440 653 580
0 0 0 0 0 0 0 0 0 0 0 0 0 0 0 0 0 0 0 0 0 0 0 0 0 0 0 0 0 0 0 0 0 0 0 0 0 0 0 231 376 492 527
0 0 0 0 0 0 0 0 0 0 0 0 0 0 0 0 0 0 0 0 0 0 0 0 0 10 11 0 0 8 14 12 6 0 0 0 0 0 0 59 392 432 597
0 0 0 0 0 0 0 0 0 0 0 0 0 0 0 0 0 0 0 0 0 0 15 41 94 122 126 118 92 104 123 83 87 13 0 0 0 0 347 671 599 468 424
0 0 0 0 0 0 0 0 0 0 0 0 0 0 0 0 0 0 0 0 4 14 85 187 295 270 199 250 316 326 228 188 175 35 0 0 1 3 522 377 457 575 454
0 0 0 0 0 0 0 0 0 0 0 0 0 0 0 0 0 0 0 0 46 195 342 423 274 257 163 166 211 263 310 303 209 89 1 0 2 92 630 207 120 384 497
0 0 0 0 0 0 0 0 0 0 0 0 0 2 6 13 20 32 29 17 104 287 524 552 332 281 90 45 68 168 299 425 310 90 5 0 22 194 343 273 11 16 94
0 0 0 0 0 0 0 0 0 0 0 0 0 11 39 57 63 95 64 65 139 344 651 417 309 144 106 69 57 152 350 426 411 241 60 2 18 44 428 184 127 6 23
35 9 42 4 0 0 0 0 0 0 0 0 6 30 65 102 100 126 102 112 199 355 668 461 388 214 184 159 123 87 200 330 280 205 103 16 36 80 549 245 79 20 16
35 21 121 160 34 6 0 0 18 35 10 24 23 50 88 77 86 125 142 239 377 515 738 676 520 328 397 118 40 78 34 112 223 103 55 25 84 173 551 209 97 0 52
0 15 160 196 129 90 17 0 112 59 44 64 37 25 110 83 136 158 88 202 541 859 857 866 566 409 253 76 1 0 0 3 53 52 27 13 96 250 500 140 48 45 10
0 0 71 202 227 215 168 94 98 111 76 95 108 99 52 68 68 58 47 255 423 649 595 604 349 206 164 119 1 3 0 0 32 28 16 96 101 91 359 187 54 108 20
0 0 0 121 274 271 262 277 266 245 144 141 238 215 144 71 60 50 169 448 517 458 429 354 142 132 159 116 0 29 56 74 118 83 89 185 179 230 290 123 152 381 117
0 0 0 81 247 400 325 306 356 441 356 249 234 194 174 179 111 122 554 480 171 197 291 233 197 222 212 25 0 0 2 7 19 33 36 51 153 260 214 184 160 152 474
0 0 0 9 229 405 428 394 506 596 563 424 313 329 295 366 255 321 696 461 219 289 231 175 101 46 11 0 1 0 8 8 7 18 73 74 24 305 239 198 50 44 447
0 0 0 2 53 301 483 435 657 735 740 650 585 586 690 653 471 653 598 403 400 377 262 122 46 51 47 46 34 1 0 0 4 6 13 86 83 72 105 30 2 11 322
0 0 0 2 15 116 330 532 714 841 875 766 733 863 935 855 671 801 585 330 346 341 267 205 161 104 90 44 16 18 24 1 23 25 6 16 47 80 54 44 3 0 477
0 0 0 25 153 306 488 783 792 801 776 751 872 965 883 885 889 540 282 344 400 368 331 304 252 112 95 47 27 48 24 17 11 23 22 6 2 54 57 63 183 21 41
0 0 9 51 330 570 815 1087 1045 950 720 459 499 697 762 731 137 121 327 346 358 412 385 183 130 124 63 36 0 1 11 27 25 32 38 49 22 18 45 55 33 75 0
0 19 42 203 492 945 1070 1054 963 729 346 220 158 159 156 178 207 360 415 546 525 439 235 138 106 46 27 0 0 13 7 0 6 8 21 56 39 5 6 0 53 133 23
2 34 215 554 900 1136 1329 1150 803 556 392 323 147 123 227 259 355 457 446 328 294 280 149 113 106 50 30 0 0 0 0 2 10 6 4 42 50 46 25 15 63 179 68
28 302 652 901 1266 1422 1382 1181 982 861 743 416 244 143 213 415 365 317 279 224 195 175 141 25 22 20 20 5 1 0 0 18 20 1 4 28 68 53 47 137 138 216 243
257 504 920 1220 1475 1348 1224 1086 942 740 427 156 160 198 268 328 340 319 179 151 99 0 0 19 41 19 26 11 2 0 0 0 0 1 0 19 28 12 22 104 132 142 62
468 603 761 1044 1290 1074 912 706 412 320 245 232 251 283 327 305 261 250 216 112 15 0 0 0 0 1 10 12 32 12 18 4 0 0 0 11 24 23 25 69 47 27 40

GFSSE_con_mlcape_042.txt.gz
CAPE
0 0 0 0 0 0 0 0 0 0 0 0 0 0 0 0 0 0 0 0 0 0 0 0 0 0 0 0 0 0 0 0 0 0 0 0 107 431 700 657 513 651 676
0 0 0 0 0 0 0 0 0 0 0 0 0 0 0 0 0 0 0 0 0 0 0 0 0 0 0 0 0 0 0 0 0 0 0 0 0 4 321 869 474 570 698
0 0 0 0 0 0 0 0 0 0 0 0 0 0 0 0 0 0 0 0 0 0 0 0 0 0 0 0 0 0 0 0 0 0 0 0 0 0 0 129 848 463 367
0 0 0 0 0 0 0 0 0 0 0 0 0 0 0 0 0 0 0 0 0 0 0 0 0 0 0 0 0 0 0 0 0 0 0 0 0 0 0 0 770 691 297
0 0 0 0 0 0 0 0 0 0 0 0 0 0 0 0 0 0 0 0 0 0 0 0 0 0 0 0 0 0 0 0 0 0 0 0 0 0 0 19 174 922 635
0 0 0 0 0 0 0 0 0 0 0 0 0 0 0 0 0 0 0 0 0 0 0 0 41 74 84 80 81 58 49 94 143 17 0 0 0 0 63 246 533 655 727
0 0 0 0 0 0 0 0 0 0 0 0 0 0 0 0 0 0 0 0 0 14 37 61 134 199 341 304 306 337 366 324 244 156 63 3 0 14 128 609 415 478 578
0 0 0 0 0 0 0 0 0 0 0 0 0 0 0 0 0 0 0 5 32 75 160 234 266 346 345 238 224 238 229 242 289 258 189 68 0 31 297 915 756 505 569
0 0 0 0 0 0 0 0 0 0 0 0 0 0 0 0 0 0 0 25 93 163 212 292 491 546 313 283 203 159 111 114 139 243 254 131 63 19 333 967 724 454 313
0 0 0 0 0 0 0 21 3 0 0 0 0 0 0 0 0 0 7 39 112 156 277 432 610 640 375 288 175 151 156 175 196 161 276 255 276 145 294 589 802 626 508
0 0 0 0 0 0 0 54 116 31 4 0 1 2 12 17 7 0 33 31 97 119 270 467 649 649 447 340 246 219 258 149 80 125 203 271 445 426 408 535 779 736 285
11 8 0 0 0 0 0 28 105 66 101 40 27 46 86 45 0 0 21 51 79 149 244 451 722 733 557 254 184 233 166 99 7 1 61 223 443 615 530 463 728 633 332
0 20 5 0 0 0 0 1 44 91 63 76 29 28 144 95 22 106 20 129 156 205 278 538 703 896 589 277 153 110 5 0 0 0 0 72 297 458 385 597 673 713 437
0 0 17 50 20 0 0 0 1 38 78 38 42 90 55 50 0 0 0 3 58 147 262 460 566 744 678 361 137 60 9 0 0 0 0 31 243 436 452 622 799 589 297
0 0 0 30 57 61 21 5 6 4 64 67 79 82 72 36 0 0 0 0 4 38 78 348 566 580 539 346 115 54 28 4 0 0 0 38 190 368 617 746 758 652 333
0 0 0 0 1 35 45 38 39 4 64 91 64 85 96 53 8 0 0 0 0 0 0 251 458 539 480 279 91 46 42 15 11 0 1 11 112 112 200 298 617 717 528
0 0 0 0 0 0 8 34 37 44 74 104 90 116 142 91 23 0 0 0 0 0 0 261 457 313 322 174 100 82 47 21 2 0 0 0 19 35 130 188 173 396 417
0 0 0 0 0 0 0 30 108 127 146 177 167 207 232 138 72 6 0 0 0 0 0 298 208 217 272 151 60 65 2 4 1 0 0 0 10 33 59 83 179 255 251
0 0 0 0 0 0 0 50 171 218 264 250 284 340 333 277 179 100 11 0 0 0 134 193 127 247 243 63 67 64 37 48 38 4 3 2 4 38 56 219 230 218 153
0 0 0 0 0 0 0 43 165 285 368 396 419 433 445 404 343 197 116 38 48 129 237 141 233 137 202 202 111 87 66 38 32 24 19 23 13 29 65 66 189 204 86
0 0 0 0 0 0 0 11 161 318 379 506 511 552 549 523 431 325 269 179 155 430 253 158 161 227 134 60 36 13 20 23 16 31 21 23 48 28 33 78 72 81 101
0 0 0 0 0 0 0 47 254 284 323 496 618 697 720 628 517 576 528 395 434 293 140 141 134 28 0 0 4 0 10 0 0 3 23 38 34 47 34 45 42 51 54
0 0 0 0 0 0 0 36 117 176 274 480 626 740 730 719 706 694 504 512 315 166 197 57 1 0 1 0 0 0 0 1 0 0 10 25 30 61 36 16 20 46 45
0 0 0 0 0 0 49 127 166 260 476 566 709 737 795 764 731 590 404 148 55 120 206 47 0 0 0 0 0 0 0 0 0 0 5 4 17 50 24 15 34 58 60
0 0 0 0 44 139 277 324 383 527 454 477 567 656 601 462 554 217 68 117 248 210 35 0 0 0 0 0 0 0 0 0 0 0 2 40 26 18 5 21 36 47 83
0 0 0 135 270 402 450 417 478 496 361 350 246 177 83 42 111 228 189 233 79 0 0 0 0 0 0 0 0 0 0 0 0 0 0 24 25 12 26 6 19 19 49

GFSSE_con_mlcape_045.txt.gz
CAPE
0 0 0 0 0 0 0 0 0 0 0 0 0 0 0 0 0 0 0 0 0 0 0 0 0 0 0 0 0 0 0 0 0 0 0 0 83 519 667 645 654 835 682
0 47 0 0 0 0 0 0 0 0 0 0 0 0 0 0 0 0 0 0 0 0 0 0 0 0 0 0 0 0 0 0 0 0 0 0 0 3 345 457 431 880 758
0 32 0 0 0 0 0 0 0 0 0 0 0 0 0 0 0 0 0 0 0 0 0 0 0 0 0 0 0 0 0 0 0 0 0 0 0 0 0 61 809 634 562
0 5 0 0 0 0 0 0 0 0 0 0 0 0 0 0 0 0 0 0 0 0 0 0 0 0 0 0 0 0 0 0 0 0 0 0 0 0 0 0 112 275 454
0 0 0 0 0 0 0 0 0 0 0 0 0 0 0 0 0 0 0 0 0 0 0 0 0 0 0 0 0 0 0 0 0 0 0 0 0 0 0 15 142 563 378
0 0 0 0 0 0 0 0 0 0 0 0 0 0 0 0 0 0 0 0 0 0 0 0 28 34 49 67 73 55 44 29 76 9 0 0 0 0 10 63 244 630 683
0 35 0 0 0 0 0 0 0 0 0 0 0 0 0 0 0 0 0 0 0 4 13 16 71 132 195 303 274 327 264 282 157 91 126 59 0 0 68 484 454 205 466
0 18 0 37 0 0 0 0 0 0 0 0 0 0 0 0 0 0 0 0 22 67 104 140 207 230 351 193 81 79 141 131 12 39 198 177 23 0 132 746 664 355 480
36 26 7 46 20 0 30 0 0 0 0 0 0 0 0 0 0 0 0 0 11 64 148 279 314 437 395 269 235 145 40 28 0 2 42 267 90 47 138 594 718 680 468
58 89 4 6 145 19 51 47 6 0 0 0 0 0 16 19 7 0 0 4 23 92 234 333 431 598 516 300 254 128 119 106 41 85 38 158 242 281 230 457 732 705 595
10 14 11 0 68 139 119 272 191 76 1 0 1 14 42 49 63 34 21 32 90 172 268 447 657 722 635 419 282 162 176 189 127 39 24 136 302 443 448 494 635 839 653
51 50 0 0 0 47 7 95 359 245 172 79 63 131 133 119 146 72 91 70 168 239 280 494 740 888 747 515 325 177 168 140 27 25 0 79 221 417 608 598 586 824 429
58 81 35 0 0 10 30 42 107 317 260 281 204 263 262 228 231 195 149 180 209 310 235 349 570 864 809 678 384 285 197 128 0 0 16 3 41 248 450 532 648 876 658
0 0 62 76 28 34 45 39 56 103 197 157 200 310 218 315 256 165 166 103 329 222 325 507 624 903 1068 965 581 314 297 197 70 37 64 2 53 239 525 520 598 874 742
0 0 0 24 44 70 57 49 69 63 100 139 160 307 243 153 268 222 197 122 187 288 324 429 678 999 1025 1089 837 439 339 338 286 188 260 54 75 239 550 836 827 769 793
0 0 0 0 6 48 32 76 96 102 96 175 181 225 328 177 267 239 197 206 109 42 67 283 495 891 1036 930 947 513 429 473 428 338 314 247 68 192 228 417 699 910 970
0 0 0 0 0 0 3 18 74 121 123 163 213 242 298 280 301 240 135 127 62 138 88 159 211 704 985 765 898 529 492 587 524 398 360 187 125 6 25 137 369 537 943
0 0 0 0 0 0 0 1 37 129 139 195 250 259 322 339 300 288 186 114 90 170 87 115 87 845 903 632 700 597 547 630 508 173 349 292 186 132 52 126 244 176 711
0 0 0 0 0 0 0 5 76 133 159 241 323 325 389 388 349 347 277 218 95 75 50 72 176 843 627 522 662 587 620 450 403 166 102 265 296 201 205 253 58 174 357
0 0 0 0 0 0 0 5 85 294 369 428 445 459 452 519 501 477 400 303 231 83 46 53 529 715 680 772 549 565 654 538 404 255 234 224 241 329 400 649 479 310 185
0 0 0 0 0 0 0 0 29 152 465 547 614 640 647 738 657 562 542 393 256 80 64 243 795 726 609 207 449 252 307 421 378 304 288 306 348 317 391 556 446 653 298
0 0 0 0 0 0 0 0 216 397 354 408 689 786 842 826 716 726 654 297 128 185 554 726 569 558 620 209 89 67 104 245 236 331 292 151 89 217 267 455 671 712 664
0 0 0 0 0 0 0 39 212 394 377 505 738 854 846 867 796 772 553 380 501 874 821 632 618 543 97 1 3 198 106 95 101 184 279 218 162 109 282 385 511 505 573
0 0 0 0 0 0 0 56 196 317 309 622 745 1009 968 1022 948 696 594 756 903 930 756 622 360 160 73 36 2 5 0 27 91 91 152 65 87 137 265 315 400 75 310
0 0 0 0 0 0 7 127 259 334 566 748 895 1079 1154 1128 980 762 890 903 804 593 605 720 265 20 2 189 109 26 5 47 52 108 142 67 0 186 412 67 228 523 628
0 0 0 0 44 149 201 354 487 534 656 921 1127 1191 1115 1036 917 710 448 425 558 577 611 476 364 108 2 75 50 28 50 83 172 108 88 104 60 45 93 35 286 161 212

GFSSE_con_mlcape_048.txt.gz
CAPE
19 111 20 0 0 0 0 0 0 0 78 480 812 839 597 261 64 0 0 0 0 0 0 0 0 0 0 0 0 0 0 0 0 0 0 0 65 447 616 843 775 1029 847
2 127 31 0 0 0 0 0 0 0 0 1 124 199 105 22 0 0 0 0 0 0 0 0 0 0 0 0 0 0 0 0 0 0 0 0 0 3 224 505 617 813 631
20 129 3 0 0 0 0 0 0 0 0 0 0 0 0 0 0 0 0 0 0 0 0 0 0 0 0 0 0 0 0 0 0 0 0 0 0 0 0 13 387 666 548
78 233 0 0 0 0 0 0 0 0 0 0 0 0 0 0 0 0 0 0 0 0 0 0 0 0 0 0 0 0 0 0 0 0 0 0 0 0 0 37 133 270 204
163 259 5 0 0 0 0 0 0 0 0 0 0 0 0 0 0 0 0 0 0 0 0 0 0 5 12 9 0 0 0 0 0 0 0 0 0 0 0 1 256 476 87
94 177 113 0 0 0 0 0 0 0 0 0 0 0 0 0 0 0 0 0 0 0 0 0 24 36 65 98 100 97 85 81 36 127 0 0 0 0 0 66 258 547 725
57 62 182 64 0 0 0 0 0 0 0 0 0 0 0 0 0 0 0 0 0 0 5 38 70 108 165 270 324 354 278 281 214 113 154 9 0 0 0 100 744 450 564
106 99 70 199 16 2 0 0 0 0 0 0 0 0 0 0 0 0 0 0 11 51 69 79 137 219 272 351 166 148 153 94 13 0 35 265 7 0 6 308 909 591 436
218 304 190 248 150 95 4 0 0 0 0 0 0 0 0 0 0 0 0 3 33 89 165 207 267 333 437 387 262 198 83 28 0 0 0 51 134 0 34 334 810 810 735
254 264 327 265 172 87 36 62 51 18 0 0 0 0 0 0 1 3 11 32 61 124 195 320 423 506 649 436 383 262 119 65 20 69 93 3 237 127 151 281 617 729 624
84 323 355 243 231 131 0 33 204 263 110 61 25 44 53 0 30 21 16 35 73 140 227 348 468 618 740 552 400 273 173 290 263 140 42 121 39 243 394 343 480 665 698
55 189 349 441 255 302 53 44 458 145 69 33 3 30 65 6 16 24 23 57 73 236 312 434 619 816 817 648 745 283 301 276 114 91 12 3 0 142 426 482 520 578 826
84 191 361 480 383 308 249 93 247 390 201 169 74 99 139 50 59 80 41 123 125 251 208 271 610 796 781 772 606 395 262 264 116 57 37 0 0 40 304 523 547 647 801
6 44 233 615 657 412 261 248 215 214 289 292 310 314 210 212 158 177 102 116 128 147 162 242 354 719 886 951 763 561 410 308 171 177 202 2 2 130 381 499 501 660 878
0 0 0 123 908 679 574 387 480 515 357 438 397 414 361 224 223 273 196 84 118 150 153 298 385 677 869 917 885 758 565 413 421 389 293 233 39 106 420 689 603 636 875
0 0 0 19 334 1034 784 805 796 851 557 482 440 384 664 364 329 258 273 211 108 144 113 386 234 563 783 775 929 928 745 479 482 525 443 512 150 109 372 606 775 795 962
0 0 0 45 80 253 451 655 899 608 732 510 529 596 553 778 416 377 326 308 164 137 236 223 299 509 467 900 977 871 807 568 507 605 639 417 389 50 12 249 328 618 833
1 0 0 0 0 0 14 161 377 358 469 580 544 700 774 872 734 538 403 377 293 254 216 206 176 112 129 788 1092 854 873 697 504 723 699 624 560 379 106 0 198 408 493
0 0 0 0 0 0 0 9 122 426 616 527 611 728 849 929 921 688 659 535 532 364 190 115 107 51 65 1021 940 785 916 731 629 628 645 533 577 513 426 153 137 96 123
0 0 0 0 0 0 0 17 148 441 712 623 662 815 936 1026 928 912 843 904 868 516 137 120 46 61 650 927 884 740 691 831 961 730 553 604 276 538 438 368 491 48 241
0 0 0 0 0 0 0 8 274 470 750 807 889 1022 1098 1077 1081 1074 1131 994 882 506 337 198 224 445 956 952 884 790 671 585 579 465 505 578 487 538 375 628 471 558 301
0 0 0 0 0 0 0 102 343 660 804 1096 1146 1206 1203 1345 1360 1144 1296 1145 938 732 612 583 576 982 759 904 658 389 193 239 459 491 574 520 557 579 481 465 445 572 573
0 0 0 0 0 0 0 445 932 1069 1088 1015 1151 1378 1488 1471 1035 1212 1389 1146 1144 860 801 983 1166 939 767 713 599 354 217 148 448 406 542 428 505 415 160 437 557 691 891
0 0 0 0 0 3 233 513 989 1018 1050 1213 1442 1521 1208 1282 1335 1427 1417 1138 982 1098 1127 1151 1038 972 850 479 110 263 310 264 108 288 485 442 474 223 46 386 607 563 670
0 0 0 0 0 64 480 639 1168 1127 1402 1451 1417 1576 1627 1473 1482 1560 1351 1305 1530 1203 1057 918 1024 957 647 461 313 256 188 169 223 339 322 418 351 198 185 669 244 613 554
0 0 0 0 20 637 907 1065 1359 1326 1380 1510 1749 1849 1822 1672 1570 1496 1543 1589 1445 1133 1180 1071 987 660 445 202 189 244 40 56 117 162 315 369 141 253 402 366 486 302 672